STARLINK-32745 (62755 NORAD) Tracking and Keplerian Element Data

This shows tracking and keplerian element data for the satellite.

Feedback or suggestion? Click here.




ElementValue
Catalog62755
NameSTARLINK-32745
Epoch Orbit221
Epoch Day35.25001157
Epoch Year2025
RAAN253.7981
Inclination42.9996
Eccentricity0.0001792
Argument of Perigee278.6228
Mean Anonmoly117.409
Mean Motion15.64347712
Decay Rate-0.0148793
L11 62755U 25014W 25035.25001157 -.01487930 00000+0 -16898-1 0 9999
L22 62755 42.9996 253.7981 0001792 278.6228 117.4090 15.64347712 2212



Live tracking and technical data element details for STARLINK-32745 (NORAD 62755). STARLINK-32745 can be tracked NOW for your location showing map with azimuth and elevation plus other details from your city location.







IsCatalogInMostPopularTable: catalog: 62755, numindb: 2
Update: records affected: 1



GetName: 62755 STARLINK-32745

Hit Count: updated at: Sun, 09 Feb 2025 15:02:46 GMT